sat.trackr.live / text

‹ back to catalog

YAHSAT 1B

NORAD 38245 · 2012-016A

PAYLOAD ACTIVE UNKNOWN

§ Identity

Operator
Country
UAE
Launch date
2012-04-23
Launch site
TYMSC
Launch vehicle
Mass (kg)
RCS (m²)
10.00

Purposes: comms

External: N2YO · Heavens-Above · Gunter

§ Orbital elements

Epoch: 2026-09-19T05:12:57.890016Z

Period
1,436.09 min
Inclination
0.1036°
Eccentricity
0.0001154
Mean motion
1.00272421 rev/d
Perigee alt
35,781.6 km
Apogee alt
35,791.3 km
Semi-major
42,164.6 km
B*
0.0000e+0
RAAN
88.6090°
Arg perigee
76.8115°
Mean anomaly
318.5698°
Rev number
4,655

§ Raw data

YAHSAT 1B1 38245U 12016A   26262.21733669  .00000122  00000+0  00000+0 0  99902 38245   0.1036  88.6090 0001154  76.8115 318.5698  1.00272421 46553

JSON: /api/v1/satellites/38245 · /tle

For live sub-satellite position, see the globe view (requires WebGL).

§ Visibility from observer

Set your observer location to see the next 7 days of passes ≥ 10°. The values pass through the URL so the page stays shareable.

No JS? Fill the form by hand. The geolocation button needs JavaScript.